Printer-friendly version

IAU Minor Planet Center

Minor Planet Center

MPEC 2002-P57 : 2002 PZ39 = 1995 UQ53

The following Minor Planet Electronic Circular may be linked-to from your own Web pages, but must not otherwise be redistributed electronically.


Read MPEC 2002-P56 Read MPEC 2002-P58


M.P.E.C. 2002-P57                                Issued 2002 Aug. 13, 23:18 UT

     The Minor Planet Electronic Circulars contain information on unusual
         minor planets and routine data on comets.  They are published
   on behalf of Commission 20 of the International Astronomical Union by the
          Minor Planet Center, Smithsonian Astrophysical Observatory,
                          Cambridge, MA 02138, U.S.A.

             Prepared using the Tamkin Foundation Computer Network

                              MPC@CFA.HARVARD.EDU
          URL http://cfa-www.harvard.edu/iau/mpc.html  ISSN 1523-6714

                             2002 PZ39 = 1995 UQ53

                           Revision to MPEC 2002-P47

Observations:
     K02P39Z  C2002 08 12.69763 00 24 26.22 -00 22 11.2          16   V      300
     K02P39Z  C2002 08 12.69883 00 24 24.94 -00 22 17.1                      300
     K02P39Z  C2002 08 12.70005 00 24 23.62 -00 22 22.7                      300
     K02P39Z  C2002 08 12.71068 00 24 12.04 -00 23 13.4                      300
     K02P39Z  C2002 08 12.71187 00 24 10.75 -00 23 19.3                      300
     K02P39Z  C2002 08 12.71307 00 24 09.48 -00 23 25.0                      300
     K02P39Z  C2002 08 12.71426 00 24 08.17 -00 23 30.5                      300
     K02P39Z  C2002 08 13.38916 00 12 55.17 -01 14 14.4                      670
     K02P39Z  C2002 08 13.45069 00 11 54.69 -01 18 39.3                      670
     K02P39Z  C2002 08 13.47414 00 11 32.16 -01 20 30.9          14.9 R      848
     K02P39Z  C2002 08 13.47465 00 11 31.68 -01 20 32.5          14.9 R      848
     K02P39Z  C2002 08 13.47519 00 11 31.24 -01 20 33.7          15.2 R      848
     K02P39Z  C2002 08 13.48916 00 11 17.01 -01 21 20.7          14.8 R      670
     K02P39Z  C2002 08 13.67492 00 08 28.48 -01 34 18.8          15.7 V      355
     K02P39Z  C2002 08 13.67671 00 08 26.79 -01 34 26.2                      355
     K02P39Z  C2002 08 13.67884 00 08 24.80 -01 34 34.4                      355
     K02P39Z  C2002 08 13.68336 00 08 20.50 -01 34 53.2                      355

Observer details:
300 Bisei Spaceguard Center--BATTeRS.  Observers A. Asami, D. J. Asher,
    T. Fuse, N. Hashimoto, A. I. Ibrahim, S. Isobe, K. Nishiyama, Y. Oshima,
    J. Terazono, H. Umehara, T. Urata, M. Yoshikawa.  0.25-m f/5.0 reflector
    + CCD.
355 Hadano.  Observer A. Asami.  0.28-m f/5.0 reflector + CCD.
670 Camarillo.  Observer J. E. Rogers.  0.30-m f/6.7 Helin Telescope + CCD.
848 Tenagra Observatory, Cottage Grove.  Observers P. R. Holvorcem, C. W.
    Juels, M. Schwartz.  Measurers P. R. Holvorcem, C. W. Juels.  0.36-m f/11
    Schmidt-Cassegrain + CCD.

Orbital elements:
2002 PZ39 = 1995 UQ53                                                PHA 0.004
Epoch 2002 May 6.0 TT = JDT 2452400.5                   MPC
M 338.40190              (2000.0)            P               Q
n   0.55259565     Peri.  259.18502     -0.65592681     +0.75468355
a   1.4707236      Node   329.80924     -0.68071181     -0.59976426
e   0.5467529      Incl.    1.66211     -0.32617702     -0.26596160
P   1.78           H   19.0           G   0.15           U   5
Residuals in seconds of arc
951023 691  0.3+  0.1+    020811 704  0.6-  0.4+    020812 952  0.3+  0.3+
951023 691  0.7+  0.1+    020811 704  0.8-  0.1+    020812 952  0.3+  0.2-
951023 691  0.4+  0.2-    020811 734  1.1+  1.0-    020812 952  0.2+  0.2+
951027 691  0.8-  0.2-    020811 734  0.5-  0.0     020812 952  0.8+  0.5+
951027 691  0.3-  0.1-    020811 704  0.2+  0.3+    020812 952  0.3+  0.2+
951027 691  0.4-  0.1+    020811 704  0.5-  0.2+    020812 649  0.2+  0.1+
020810 704  0.2+  0.3-    020811 704  0.1+  0.2+    020812 649  0.1+  0.2+
020810 704  0.0   0.0     020811 704  0.4-  0.1-    020812 649  0.3+  0.3+
020810 704  0.1-  0.3-    020811 848  0.1+  0.0     020812 704  0.5-  0.1-
020810 704  0.0   0.2+    020811 848  0.1-  0.2-    020812 704  0.5-  0.2-
020810 704  0.2-  0.2+    020811 848  0.5+  0.0     020812 704  0.3-  0.3-
020810 118  0.9-  0.0     020811 848  0.0   0.2-    020812 704  0.5-  0.3-
020810 118  0.7-  0.2-    020811 848  0.2-  0.2-    020812 704  0.0   0.3-
020810 118  0.8-  0.2-    020811 355  0.1-  0.2-    020812 704  0.7-  0.4-
020810 118  0.9-  0.1+    020811 355  0.2-  0.6-    020812 704  0.3+  0.5-
020810 118  1.2-  0.2-    020811 355  0.0   0.4-    020812 704  0.7-  0.8-
020810 118  0.7-  0.0     020811 355  0.1+  0.2-    020812 704  0.8+  0.7-
020811 946  0.6-  0.6+    020811 355  0.7+  0.6-    020812 848  0.2-  0.8+
020811 946  0.1-  0.1-    020811 355  0.2+  0.4-    020812 300  0.2-  0.2+
020811 946  0.1-  0.1-    020811 379  1.6+  0.5-    020812 300  0.1+  0.0
020811 952  0.2+  0.4-    020811 379 (2.0+  0.4-)   020812 300  0.2+  0.2+
020811 952  0.2+  0.1-    020811 379  0.4+  0.2+    020812 300  0.5-  0.1-
020811 952  0.2+  0.1-    020811 379  1.3+  0.5-    020812 300  0.5-  0.4-
020811 952  0.3+  0.0     020811 379  0.5+  0.0     020812 300  0.0   0.4-
020811 952  0.5+  0.0     020811 379  1.0+  0.3-    020812 300  0.3-  0.2-
020811 952  0.2+  0.3-    020812 952  0.2+  0.1+    020813 941  0.4-  0.0
020811 952  0.5+  0.5-    020812 952  0.7-  0.4-    020813 941  0.1-  0.1+
020811 952  0.8+  0.9-    020812 941  1.1-  0.2+    020813 941  0.5+  0.1+
020811 952  0.6+  0.2+    020812 952  0.5-  0.3+    020813 941  0.6+  0.0
020811 952  0.8+  0.3+    020812 941  0.5-  0.0     020813 941  0.1-  0.0
020811 952  1.2+  0.4+    020812 941  0.9-  0.2+    020813 941  0.9+  0.1+
020811 952  0.6+  0.2+    020812 952  0.5-  0.3+    020813 941  0.4+  0.2+
020811 952  0.2+  0.3+    020812 941  0.6-  0.0     020813 941  0.7+  0.0
020811 952  0.8+  0.1+    020812 941  0.5-  0.1+    020813 670  0.2+  0.4+
020811 952  0.6+  0.3+    020812 941  0.6-  0.1+    020813 670  0.6+  1.3-
020811 952  0.9+  0.2-    020812 952  0.0   0.1+    020813 848  0.5-  0.1-
020811 704  0.4-  0.4+    020812 941  0.5+  0.0     020813 848  0.3-  0.5+
020811 704  0.7-  0.5+    020812 941  0.2-  0.4+    020813 848  1.0+  1.6+
020811 704  0.2-  0.5+    020812 952  0.3-  0.4+    020813 670  1.0-  0.5+
020811 704  0.5-  0.2+    020812 952  0.1+  0.1+    020813 355  0.3-  0.4-
020811 649  0.4-  0.4+    020812 952  0.2-  0.2-    020813 355  0.2-  0.4-
020811 649  0.6-  0.6+    020812 952  0.9+  0.2+    020813 355  0.2+  0.2+
020811 649  0.3-  0.5+    020812 952  0.1+  0.1+    020813 355  0.1-  0.0

Ephemeris:
2002 PZ39                a,e,i = 1.47, 0.55, 2                   q = 0.6666
Date    TT    R. A. (2000) Decl.     Delta      r     Elong.  Phase     V
2002 08 04    04 28.25   +14 34.4    0.061    0.989    64.0   112.8    17.2
2002 08 14    00 03.62   -01 55.0    0.087    1.082   140.9    36.2    15.3
2002 08 24    22 41.63   -07 49.4    0.164    1.173   171.7     7.2    15.9
2002 09 03    22 12.74   -09 43.7    0.256    1.262   171.2     7.0    17.1
2002 09 13    22 00.89   -10 28.4    0.360    1.348   158.6    15.8    18.3
2002 09 23    21 57.49   -10 39.0    0.476    1.429   148.0    21.9    19.2
2002 10 03    21 59.19   -10 28.1    0.603    1.507   138.6    26.0    20.0
2002 10 13    22 04.40   -10 01.1    0.741    1.580   130.1    28.9    20.6
2002 10 23    22 12.13   -09 20.8    0.888    1.650   122.2    30.7    21.1
2002 11 02    22 21.70   -08 29.7    1.044    1.715   114.8    31.7    21.6
2002 11 12    22 32.67   -07 29.3    1.205    1.776   107.6    32.1    22.0

Timothy B. Spahr             (C) Copyright 2002 MPC           M.P.E.C. 2002-P57

Read MPEC 2002-P56 Read MPEC 2002-P58


Our Web policy. Index to the CBAT/MPC/ICQ pages.


Valid HTML 4.01!